Torna al catalogo

COSMOS 252 DEB *

AttivoLEO
NORAD 3901·DEBRIS·🇷🇺 Russia

Lanciato Nov 1, 1968 da Baikonur Cosmodrome

Loading…

Prossimi Passaggi (prossime 24 ore)

TLE

AggiornatoSource: Space-Track

Epoca: Sep 14, 2026, 02:09 UTC

1 03901U 68097BN  26257.09025485  .00000533  00000-0  47535-3 0  9996
2 03901  61.2805 296.8266 0806819 282.9000  68.3129 12.96065674689063

Traccia COSMOS 252 DEB * in tempo reale con AllMySat

Download on the App Store